STARLINK-30081 (57515 NORAD) Tracking and Keplerian Element Data

This shows tracking and keplerian element data for the satellite.

Feedback or suggestion? Click here.




ElementValue
Catalog57515
NameSTARLINK-30081
Epoch Orbit438
Epoch Day238.91667824
Epoch Year2023
RAAN12.1727
Inclination43.0005
Eccentricity0.0001397
Argument of Perigee282.1236
Mean Anonmoly233.0136
Mean Motion15.51372795
Decay Rate-0.01685063
L11 57515U 23113X 23238.91667824 -.01685063 00000+0 -31214-1 0 9996
L22 57515 43.0005 12.1727 0001397 282.1236 233.0136 15.51372795 4389



Live tracking and technical data element details for STARLINK-30081 (NORAD 57515). STARLINK-30081 can be tracked NOW for your location showing map with azimuth and elevation plus other details from your city location.







IsCatalogInMostPopularTable: catalog: 57515, numindb: 7
Update: records affected: 1



GetName: 57515 STARLINK-30081

Hit Count: updated at: Tue, 26 Sep 2023 12:34:02 GMT